^^
Station Historical Data
Daily Summary for August 12, 2018 Units:  Metric    English   Both
« Previous Day
Next Day »
Daily Weekly Monthly Yearly Custom
  High: Low: Average:
Temperature: -17.8 °C 13.9 °C 20.9 °C
Dew Point: -17.8 °C 12.7 °C 15.4 °C
Humidity: Humidity % 41 % 74 %
Wind Speed: 0 km/h 0 km/h 0 km/h
Wind Gust: 0 km/h - -
Wind:- - East
Pressure: 0 hPa 1015.8 hPa -
Precipitation: 0 mm    
Historical Graphs
 
 
Tabular Data for August 12, 2018
Time Temperature Dew Point Pressure Wind Wind Speed Wind Gust Humidity Rainfall Rate (Hourly) solar Conditions
-17.8 °C -17.8 °C 0 hPa Calm     Humidity % 0 mm SoftwareType W/m2 Conditions
00:00 15.8 °C 13.6 °C 1015.8 hPa Calm     87 % 0 mm WeatherDisplay:10.37 W/m2 FEW
00:05 15.7 °C 13.6 °C 1015.8 hPa Calm     87 % 0 mm WeatherDisplay:10.37 W/m2 FEW
00:10 15.6 °C 13.4 °C 1015.8 hPa Calm     87 % 0 mm WeatherDisplay:10.37 W/m2 FEW
00:15 15.6 °C 13.4 °C 1015.8 hPa Calm     87 % 0 mm WeatherDisplay:10.37 W/m2 FEW
00:20 15.5 °C 13.3 °C 1015.8 hPa Calm     87 % 0 mm WeatherDisplay:10.37 W/m2 FEW
00:25 15.4 °C 13.3 °C 1015.8 hPa Calm     87 % 0 mm WeatherDisplay:10.37 W/m2 FEW
00:30 15.4 °C 13.2 °C 1015.8 hPa Calm     87 % 0 mm WeatherDisplay:10.37 W/m2 FEW
00:35 15.3 °C 13.2 °C 1015.8 hPa Calm     87 % 0 mm WeatherDisplay:10.37 W/m2 FEW
00:40 15.3 °C 13.3 °C 1015.8 hPa Calm     88 % 0 mm WeatherDisplay:10.37 W/m2 FEW
00:45 15.2 °C 13.2 °C 1015.8 hPa Calm     88 % 0 mm WeatherDisplay:10.37 W/m2 FEW
00:50 15.2 °C 13.2 °C 1016.1 hPa Calm     88 % 0 mm WeatherDisplay:10.37 W/m2 FEW
00:55 15.1 °C 13.3 °C 1016.1 hPa Calm     89 % 0 mm WeatherDisplay:10.37 W/m2 FEW
01:00 15.1 °C 13.2 °C 1016.1 hPa Calm     89 % 0 mm WeatherDisplay:10.37 W/m2 FEW
01:05 15 °C 13.4 °C 1016.1 hPa Calm     90 % 0 mm WeatherDisplay:10.37 W/m2 FEW
01:10 14.9 °C 13.3 °C 1016.1 hPa Calm     90 % 0 mm WeatherDisplay:10.37 W/m2 FEW
01:15 14.9 °C 13.3 °C 1016.1 hPa Calm     90 % 0 mm WeatherDisplay:10.37 W/m2 FEW
01:20 14.8 °C 13.2 °C 1016.1 hPa Calm     90 % 0 mm WeatherDisplay:10.37 W/m2 FEW
01:25 14.8 °C 13.3 °C 1016.1 hPa Calm     91 % 0 mm WeatherDisplay:10.37 W/m2 FEW
01:30 14.8 °C 13.3 °C 1016.1 hPa Calm     91 % 0 mm WeatherDisplay:10.37 W/m2 FEW
01:35 14.7 °C 13.3 °C 1016.5 hPa Calm     91 % 0 mm WeatherDisplay:10.37 W/m2 FEW
01:40 14.7 °C 13.3 °C 1016.5 hPa Calm     91 % 0 mm WeatherDisplay:10.37 W/m2 FEW
01:45 14.7 °C 13.4 °C 1016.5 hPa Calm     92 % 0 mm WeatherDisplay:10.37 W/m2 FEW
01:50 14.7 °C 13.4 °C 1016.5 hPa Calm     92 % 0 mm WeatherDisplay:10.37 W/m2 FEW
01:55 14.7 °C 13.4 °C 1016.5 hPa Calm     92 % 0 mm WeatherDisplay:10.37 W/m2 FEW
02:00 14.7 °C 13.4 °C 1016.5 hPa Calm     92 % 0 mm WeatherDisplay:10.37 W/m2 FEW
02:05 14.7 °C 13.4 °C 1016.5 hPa Calm     92 % 0 mm WeatherDisplay:10.37 W/m2 FEW
02:10 14.7 °C 13.4 °C 1016.5 hPa Calm     92 % 0 mm WeatherDisplay:10.37 W/m2 FEW
02:15 14.6 °C 13.3 °C 1016.5 hPa Calm     92 % 0 mm WeatherDisplay:10.37 W/m2 FEW
02:20 14.6 °C 13.3 °C 1016.5 hPa Calm     92 % 0 mm WeatherDisplay:10.37 W/m2 FEW
02:25 14.6 °C 13.3 °C 1016.5 hPa Calm     92 % 0 mm WeatherDisplay:10.37 W/m2 FEW
02:30 14.6 °C 13.3 °C 1016.5 hPa Calm     92 % 0 mm WeatherDisplay:10.37 W/m2 FEW
02:35 14.5 °C 13.2 °C 1016.5 hPa Calm     92 % 0 mm WeatherDisplay:10.37 W/m2 FEW
02:40 14.5 °C 13.2 °C 1016.5 hPa Calm     92 % 0 mm WeatherDisplay:10.37 W/m2 FEW
02:45 14.4 °C 13 °C 1016.5 hPa Calm     91 % 0 mm WeatherDisplay:10.37 W/m2 FEW
02:50 14.4 °C 12.9 °C 1016.5 hPa Calm     91 % 0 mm WeatherDisplay:10.37 W/m2 FEW
02:55 14.4 °C 12.9 °C 1016.8 hPa Calm     91 % 0 mm WeatherDisplay:10.37 W/m2 FEW
03:00 14.3 °C 12.9 °C 1016.8 hPa Calm     91 % 0 mm WeatherDisplay:10.37 W/m2 FEW
03:05 14.3 °C 12.8 °C 1016.8 hPa Calm     91 % 0 mm WeatherDisplay:10.37 W/m2 FEW
03:10 14.2 °C 12.8 °C 1016.5 hPa Calm     91 % 0 mm WeatherDisplay:10.37 W/m2 FEW
03:15 14.2 °C 12.8 °C 1016.5 hPa Calm     91 % 0 mm WeatherDisplay:10.37 W/m2 FEW
03:20 14.2 °C 12.9 °C 1016.8 hPa Calm     92 % 0 mm WeatherDisplay:10.37 W/m2 FEW
03:25 14.1 °C 12.8 °C 1016.8 hPa Calm     92 % 0 mm WeatherDisplay:10.37 W/m2 FEW
03:30 14.1 °C 12.8 °C 1016.8 hPa Calm     92 % 0 mm WeatherDisplay:10.37 W/m2 FEW
03:35 14.1 °C 12.8 °C 1016.8 hPa Calm     92 % 0 mm WeatherDisplay:10.37 W/m2 FEW
03:40 14 °C 12.7 °C 1016.8 hPa Calm     92 % 0 mm WeatherDisplay:10.37 W/m2 FEW
03:45 14 °C 12.7 °C 1016.8 hPa Calm     92 % 0 mm WeatherDisplay:10.37 W/m2 FEW
03:50 13.9 °C 12.7 °C 1016.8 hPa Calm     92 % 0 mm WeatherDisplay:10.37 W/m2 FEW
03:55 13.9 °C 12.7 °C 1016.8 hPa Calm     92 % 0 mm WeatherDisplay:10.37 W/m2 FEW
04:00 13.9 °C 12.8 °C 1016.8 hPa Calm     93 % 0 mm WeatherDisplay:10.37 W/m2 FEW
04:05 13.9 °C 12.8 °C 1016.8 hPa Calm     93 % 0 mm WeatherDisplay:10.37 W/m2 FEW
04:10 13.9 °C 12.8 °C 1016.8 hPa Calm     93 % 0 mm WeatherDisplay:10.37 W/m2 FEW
04:15 13.9 °C 12.8 °C 1016.8 hPa Calm     93 % 0 mm WeatherDisplay:10.37 W/m2 FEW
04:20 13.9 °C 12.8 °C 1016.8 hPa Calm     93 % 0 mm WeatherDisplay:10.37 W/m2 FEW
04:25 13.9 °C 12.8 °C 1017.2 hPa Calm     93 % 0 mm WeatherDisplay:10.37 W/m2 FEW
04:30 13.9 °C 12.8 °C 1017.2 hPa Calm     93 % 0 mm WeatherDisplay:10.37 W/m2 FEW
04:35 14 °C 13.1 °C 1016.8 hPa Calm     94 % 0 mm WeatherDisplay:10.37 W/m2 FEW
04:40 14 °C 13.1 °C 1017.2 hPa Calm     94 % 0 mm WeatherDisplay:10.37 W/m2 FEW
04:45 14 °C 13.1 °C 1016.8 hPa Calm     94 % 0 mm WeatherDisplay:10.37 W/m2 FEW
04:50 14 °C 13.1 °C 1017.2 hPa Calm     94 % 0 mm WeatherDisplay:10.37 W/m2 FEW
04:55 14.1 °C 13.1 °C 1017.2 hPa Calm     94 % 0 mm WeatherDisplay:10.37 W/m2 FEW
05:00 14.1 °C 13.1 °C 1017.2 hPa Calm     94 % 0 mm WeatherDisplay:10.37 W/m2 FEW
05:05 14.1 °C 13.1 °C 1017.2 hPa Calm     94 % 0 mm WeatherDisplay:10.37 W/m2 FEW
05:10 14.1 °C 13.1 °C 1017.2 hPa Calm     94 % 0 mm WeatherDisplay:10.37 W/m2 FEW
05:15 14.1 °C 13.1 °C 1017.2 hPa Calm     94 % 0 mm WeatherDisplay:10.37 W/m2 FEW
05:20 14.1 °C 13.1 °C 1017.2 hPa Calm     94 % 0 mm WeatherDisplay:10.37 W/m2 FEW
05:25 14.1 °C 13.1 °C 1017.2 hPa Calm     94 % 0 mm WeatherDisplay:10.37 W/m2 FEW
05:30 14.1 °C 13.2 °C 1017.5 hPa Calm     94 % 0 mm WeatherDisplay:10.37 W/m2 FEW
05:35 14.1 °C 13.2 °C 1017.5 hPa Calm     94 % 0 mm WeatherDisplay:10.37 W/m2 FEW
05:40 14.1 °C 13.2 °C 1017.5 hPa Calm     94 % 0 mm WeatherDisplay:10.37 W/m2 FEW
05:45 14.1 °C 13.2 °C 1017.5 hPa Calm     94 % 0 mm WeatherDisplay:10.37 W/m2 FEW
05:50 14.1 °C 13.2 °C 1017.5 hPa Calm     94 % 0 mm WeatherDisplay:10.37 W/m2 FEW
05:55 14.1 °C 13.2 °C 1017.5 hPa Calm     94 % 0 mm WeatherDisplay:10.37 W/m2 FEW
06:00 14.1 °C 13.2 °C 1017.5 hPa Calm     94 % 0 mm WeatherDisplay:10.37 W/m2 FEW
06:05 14.1 °C 13.1 °C 1017.5 hPa Calm     94 % 0 mm WeatherDisplay:10.37 W/m2 FEW
06:10 14.1 °C 13.1 °C 1017.8 hPa Calm     94 % 0 mm WeatherDisplay:10.37 W/m2 FEW
06:15 14 °C 13.1 °C 1017.8 hPa Calm     94 % 0 mm WeatherDisplay:10.37 W/m2 FEW
06:20 14 °C 13.1 °C 1017.8 hPa Calm     94 % 0 mm WeatherDisplay:10.37 W/m2 FEW
06:25 14 °C 13.1 °C 1017.8 hPa Calm     94 % 0 mm WeatherDisplay:10.37 W/m2 FEW
06:30 13.9 °C 13 °C 1018.2 hPa Calm     94 % 0 mm WeatherDisplay:10.37 W/m2 FEW
06:35 13.9 °C 13 °C 1018.2 hPa Calm     94 % 0 mm WeatherDisplay:10.37 W/m2 FEW
06:40 13.9 °C 13 °C 1018.2 hPa Calm     94 % 0 mm WeatherDisplay:10.37 W/m2 FEW
06:45 13.9 °C 12.9 °C 1018.2 hPa Calm     94 % 0 mm WeatherDisplay:10.37 W/m2 FEW
06:50 13.9 °C 12.9 °C 1018.2 hPa Calm     94 % 0 mm WeatherDisplay:10.37 W/m2 FEW
06:55 13.9 °C 13 °C 1018.2 hPa Calm     94 % 0 mm WeatherDisplay:10.37 W/m2 FEW
07:00 13.9 °C 13.2 °C 1018.2 hPa Calm     95 % 0 mm WeatherDisplay:10.37 W/m2 FEW
07:05 14 °C 13.2 °C 1018.5 hPa Calm     95 % 0 mm WeatherDisplay:10.37 W/m2 FEW
07:10 14.1 °C 13.3 °C 1018.5 hPa Calm     95 % 0 mm WeatherDisplay:10.37 W/m2 FEW
07:15 14.1 °C 13.3 °C 1018.5 hPa Calm     95 % 0 mm WeatherDisplay:10.37 W/m2 FEW
07:20 14.2 °C 13.4 °C 1018.5 hPa Calm     95 % 0 mm WeatherDisplay:10.37 W/m2 FEW
07:25 14.3 °C 13.5 °C 1018.5 hPa Calm     95 % 0 mm WeatherDisplay:10.37 W/m2 FEW
07:30 14.4 °C 13.8 °C 1018.5 hPa Calm     96 % 0 mm WeatherDisplay:10.37 W/m2 FEW
07:35 14.4 °C 13.8 °C 1018.5 hPa Calm     96 % 0 mm WeatherDisplay:10.37 W/m2 FEW
07:40 14.6 °C 14 °C 1018.5 hPa Calm     96 % 0 mm WeatherDisplay:10.37 W/m2 FEW
07:45 14.8 °C 14.2 °C 1018.5 hPa Calm     96 % 0 mm WeatherDisplay:10.37 W/m2 FEW
07:50 14.9 °C 14.3 °C 1018.5 hPa Calm     96 % 0 mm WeatherDisplay:10.37 W/m2 FEW
07:55 15.2 °C 14.5 °C 1018.8 hPa Calm     96 % 0 mm WeatherDisplay:10.37 W/m2 FEW
08:00 15.3 °C 14.7 °C 1018.8 hPa Calm     96 % 0 mm WeatherDisplay:10.37 W/m2 FEW
08:05 15.5 °C 15.5 °C 1018.8 hPa Calm     100 % 0 mm WeatherDisplay:10.37 W/m2 FEW
08:10 15.7 °C 15.7 °C 1018.8 hPa Calm     100 % 0 mm WeatherDisplay:10.37 W/m2 FEW
08:15 15.9 °C 15.9 °C 1018.8 hPa Calm     100 % 0 mm WeatherDisplay:10.37 W/m2 FEW
08:20 16.1 °C 16.1 °C 1018.8 hPa Calm     100 % 0 mm WeatherDisplay:10.37 W/m2 FEW
08:25 16.3 °C 16.3 °C 1018.8 hPa Calm     100 % 0 mm WeatherDisplay:10.37 W/m2 FEW
08:30 16.4 °C 15.8 °C 1018.8 hPa Calm     96 % 0 mm WeatherDisplay:10.37 W/m2 FEW
08:35 16.6 °C 15.9 °C 1018.8 hPa Calm   1.6 km/h 96 % 0 mm WeatherDisplay:10.37 W/m2 FEW
08:40 16.8 °C 16.2 °C 1018.8 hPa Calm     96 % 0 mm WeatherDisplay:10.37 W/m2 FEW
08:45 17.1 °C 16.2 °C 1018.8 hPa Calm   1.6 km/h 95 % 0 mm WeatherDisplay:10.37 W/m2 FEW
08:50 17.3 °C 16.3 °C 1018.8 hPa Calm     94 % 0 mm WeatherDisplay:10.37 W/m2 FEW
08:55 17.6 °C 16.4 °C 1018.8 hPa Calm   1.6 km/h 93 % 0 mm WeatherDisplay:10.37 W/m2 FEW
09:00 17.9 °C 16.4 °C 1018.8 hPa Calm     91 % 0 mm WeatherDisplay:10.37 W/m2 FEW
09:05 18.3 °C 16.7 °C 1018.8 hPa Calm     90 % 0 mm WeatherDisplay:10.37 W/m2 FEW
09:10 18.7 °C 16.7 °C 1018.8 hPa Calm     88 % 0 mm WeatherDisplay:10.37 W/m2 FEW
09:15 19.1 °C 16.8 °C 1018.8 hPa Calm   1.6 km/h 87 % 0 mm WeatherDisplay:10.37 W/m2 FEW
09:20 19.4 °C 16.8 °C 1018.8 hPa Calm     85 % 0 mm WeatherDisplay:10.37 W/m2 FEW
09:25 19.7 °C 16.9 °C 1018.8 hPa Calm     84 % 0 mm WeatherDisplay:10.37 W/m2 FEW
09:30 20 °C 17.2 °C 1018.8 hPa Calm     84 % 0 mm WeatherDisplay:10.37 W/m2 FEW
09:35 20.3 °C 17.3 °C 1018.8 hPa Calm     83 % 0 mm WeatherDisplay:10.37 W/m2 FEW
09:40 20.6 °C 17.6 °C 1018.8 hPa Calm   1.6 km/h 83 % 0 mm WeatherDisplay:10.37 W/m2 FEW
09:45 20.8 °C 17.7 °C 1018.8 hPa Calm     82 % 0 mm WeatherDisplay:10.37 W/m2 FEW
09:50 21.1 °C 17.4 °C 1018.8 hPa Calm     80 % 0 mm WeatherDisplay:10.37 W/m2 FEW
09:55 21.3 °C 17.7 °C 1018.8 hPa Calm   1.6 km/h 80 % 0 mm WeatherDisplay:10.37 W/m2 FEW
10:00 21.6 °C 17.6 °C 1018.8 hPa Calm     78 % 0 mm WeatherDisplay:10.37 W/m2 FEW
10:05 21.8 °C 17.8 °C 1018.8 hPa Calm     78 % 0 mm WeatherDisplay:10.37 W/m2 FEW
10:10 22.1 °C 17.9 °C 1018.8 hPa Calm     77 % 0 mm WeatherDisplay:10.37 W/m2 FEW
10:15 22.4 °C 17.9 °C 1019.2 hPa Calm     76 % 0 mm WeatherDisplay:10.37 W/m2 FEW
10:20 22.6 °C 18.2 °C 1019.2 hPa Calm     76 % 0 mm WeatherDisplay:10.37 W/m2 FEW
10:25 22.9 °C 18.4 °C 1019.2 hPa Calm     76 % 0 mm WeatherDisplay:10.37 W/m2 FEW
10:30 23.2 °C 18.3 °C 1019.2 hPa Calm     74 % 0 mm WeatherDisplay:10.37 W/m2 FEW
10:35 23.5 °C 18.2 °C 1019.2 hPa Calm     72 % 0 mm WeatherDisplay:10.37 W/m2 FEW
10:40 23.8 °C 18.6 °C 1019.2 hPa Calm   1.6 km/h 73 % 0 mm WeatherDisplay:10.37 W/m2 FEW
10:45 24.1 °C 18.4 °C 1019.2 hPa Calm   1.6 km/h 71 % 0 mm WeatherDisplay:10.37 W/m2 FEW
10:50 24.4 °C 18.3 °C 1019.2 hPa Calm   3.2 km/h 69 % 0 mm WeatherDisplay:10.37 W/m2 FEW
10:55 24.7 °C 18.4 °C 1019.2 hPa Calm   4.8 km/h 68 % 0 mm WeatherDisplay:10.37 W/m2 FEW
11:00 25 °C 18.7 °C 1019.2 hPa Calm   4.8 km/h 68 % 0 mm WeatherDisplay:10.37 W/m2 FEW
11:05 25.3 °C 18.2 °C 1019.2 hPa Calm   1.6 km/h 65 % 0 mm WeatherDisplay:10.37 W/m2 FEW
11:10 25.6 °C 18.2 °C 1019.2 hPa Calm   1.6 km/h 64 % 0 mm WeatherDisplay:10.37 W/m2 FEW
11:15 25.8 °C 17.9 °C 1019.2 hPa Calm   1.6 km/h 62 % 0 mm WeatherDisplay:10.37 W/m2 FEW
11:20 26 °C 17.9 °C 1019.2 hPa Calm   3.2 km/h 61 % 0 mm WeatherDisplay:10.37 W/m2 FEW
11:25 26.2 °C 17.8 °C 1019.2 hPa Calm   1.6 km/h 60 % 0 mm WeatherDisplay:10.37 W/m2 FEW
11:30 26.4 °C 17.7 °C 1019.2 hPa Calm   3.2 km/h 59 % 0 mm WeatherDisplay:10.37 W/m2 FEW
11:35 26.5 °C 18.1 °C 1019.2 hPa Calm   4.8 km/h 60 % 0 mm WeatherDisplay:10.37 W/m2 FEW
11:40 26.6 °C 17.9 °C 1019.2 hPa Calm   4.8 km/h 59 % 0 mm WeatherDisplay:10.37 W/m2 FEW
11:45 26.7 °C 18.8 °C 1019.2 hPa Calm   3.2 km/h 62 % 0 mm WeatherDisplay:10.37 W/m2 FEW
11:50 26.7 °C 17.5 °C 1019.2 hPa Calm   8 km/h 57 % 0 mm WeatherDisplay:10.37 W/m2 FEW
11:55 26.8 °C 18.1 °C 1019.2 hPa Calm   6.4 km/h 59 % 0 mm WeatherDisplay:10.37 W/m2 FEW
12:00 26.8 °C 18.2 °C 1019.2 hPa Calm     59 % 0 mm WeatherDisplay:10.37 W/m2 FEW
12:05 26.9 °C 18.7 °C 1019.2 hPa Calm   3.2 km/h 61 % 0 mm WeatherDisplay:10.37 W/m2 FEW
12:10 26.9 °C 18.5 °C 1019.2 hPa Calm   1.6 km/h 60 % 0 mm WeatherDisplay:10.37 W/m2 FEW
12:15 27 °C 18.8 °C 1019.2 hPa Calm   1.6 km/h 61 % 0 mm WeatherDisplay:10.37 W/m2 FEW
12:20 27.1 °C 18.9 °C 1019.2 hPa Calm   1.6 km/h 61 % 0 mm WeatherDisplay:10.37 W/m2 FEW
12:25 27.1 °C 18.7 °C 1019.2 hPa Calm   1.6 km/h 60 % 0 mm WeatherDisplay:10.37 W/m2 FEW
12:30 27.1 °C 18.9 °C 1018.8 hPa Calm   3.2 km/h 61 % 0 mm WeatherDisplay:10.37 W/m2 FEW
12:35 27.2 °C 18.7 °C 1019.2 hPa Calm   1.6 km/h 60 % 0 mm WeatherDisplay:10.37 W/m2 FEW
12:40 27.2 °C 17.9 °C 1018.8 hPa Calm   1.6 km/h 57 % 0 mm WeatherDisplay:10.37 W/m2 FEW
12:45 27.2 °C 18.2 °C 1018.8 hPa Calm   6.4 km/h 58 % 0 mm WeatherDisplay:10.37 W/m2 FEW
12:50 27.2 °C 17.3 °C 1018.8 hPa Calm   3.2 km/h 55 % 0 mm WeatherDisplay:10.37 W/m2 FEW
12:55 27.2 °C 17.4 °C 1018.8 hPa Calm     55 % 0 mm WeatherDisplay:10.37 W/m2 FEW
13:00 27.2 °C 17.9 °C 1018.8 hPa Calm     57 % 0 mm WeatherDisplay:10.37 W/m2 FEW
13:05 27.2 °C 17.9 °C 1018.8 hPa Calm   1.6 km/h 57 % 0 mm WeatherDisplay:10.37 W/m2 FEW
13:10 27.2 °C 18.2 °C 1018.8 hPa Calm   4.8 km/h 58 % 0 mm WeatherDisplay:10.37 W/m2 FEW
13:15 27.2 °C 17.9 °C 1018.8 hPa Calm   3.2 km/h 57 % 0 mm WeatherDisplay:10.37 W/m2 FEW
13:20 27.2 °C 17.6 °C 1018.5 hPa Calm     56 % 0 mm WeatherDisplay:10.37 W/m2 FEW
13:25 27.2 °C 17.9 °C 1018.5 hPa Calm     57 % 0 mm WeatherDisplay:10.37 W/m2 FEW
13:30 27.3 °C 18.1 °C 1018.5 hPa Calm   1.6 km/h 57 % 0 mm WeatherDisplay:10.37 W/m2 FEW
13:35 27.4 °C 17.3 °C 1018.5 hPa Calm   3.2 km/h 54 % 0 mm WeatherDisplay:10.37 W/m2 FEW
13:40 27.4 °C 17.6 °C 1018.5 hPa Calm     55 % 0 mm WeatherDisplay:10.37 W/m2 FEW
13:45 27.5 °C 17.1 °C 1018.5 hPa Calm   1.6 km/h 53 % 0 mm WeatherDisplay:10.37 W/m2 FEW
13:50 27.5 °C 17.7 °C 1018.5 hPa Calm     55 % 0 mm WeatherDisplay:10.37 W/m2 FEW
13:55 27.5 °C 17.1 °C 1018.5 hPa Calm     53 % 0 mm WeatherDisplay:10.37 W/m2 FEW
14:00 27.5 °C 17.1 °C 1018.5 hPa Calm   3.2 km/h 53 % 0 mm WeatherDisplay:10.37 W/m2 FEW
14:05 27.6 °C 17.4 °C 1018.5 hPa Calm   3.2 km/h 54 % 0 mm WeatherDisplay:10.37 W/m2 FEW
14:10 27.7 °C 17.5 °C 1018.5 hPa Calm     54 % 0 mm WeatherDisplay:10.37 W/m2 FEW
14:15 27.7 °C 17.3 °C 1018.5 hPa Calm   1.6 km/h 53 % 0 mm WeatherDisplay:10.37 W/m2 FEW
14:20 27.8 °C 17.1 °C 1018.5 hPa Calm   1.6 km/h 52 % 0 mm WeatherDisplay:10.37 W/m2 FEW
14:25 27.9 °C 17.2 °C 1018.5 hPa Calm   3.2 km/h 52 % 0 mm WeatherDisplay:10.37 W/m2 FEW
14:30 28 °C 17.2 °C 1018.5 hPa Calm     52 % 0 mm WeatherDisplay:10.37 W/m2 FEW
14:35 28 °C 17.2 °C 1018.5 hPa Calm     52 % 0 mm WeatherDisplay:10.37 W/m2 FEW
14:40 28.1 °C 16.9 °C 1018.5 hPa Calm   1.6 km/h 51 % 0 mm WeatherDisplay:10.37 W/m2 FEW
14:45 28.2 °C 17.1 °C 1018.5 hPa SE 1.6 km/h 6.4 km/h 51 % 0 mm WeatherDisplay:10.37 W/m2 FEW
14:50 28.3 °C 16.9 °C 1018.5 hPa Calm   1.6 km/h 50 % 0 mm WeatherDisplay:10.37 W/m2 FEW
14:55 28.4 °C 16.3 °C 1018.5 hPa Calm   1.6 km/h 48 % 0 mm WeatherDisplay:10.37 W/m2 FEW
15:00 28.5 °C 17.4 °C 1018.5 hPa Calm     51 % 0 mm WeatherDisplay:10.37 W/m2 FEW
15:05 28.6 °C 16.5 °C 1018.5 hPa Calm   1.6 km/h 48 % 0 mm WeatherDisplay:10.37 W/m2 FEW
15:10 28.7 °C 16.2 °C 1018.5 hPa Calm     47 % 0 mm WeatherDisplay:10.37 W/m2 FEW
15:15 28.8 °C 16.3 °C 1018.5 hPa Calm     47 % 0 mm WeatherDisplay:10.37 W/m2 FEW
15:20 28.9 °C 17.1 °C 1018.5 hPa Calm   1.6 km/h 49 % 0 mm WeatherDisplay:10.37 W/m2 FEW
15:25 28.9 °C 17.1 °C 1018.5 hPa Calm     49 % 0 mm WeatherDisplay:10.37 W/m2 FEW
15:30 28.9 °C 16.4 °C 1018.5 hPa Calm   1.6 km/h 47 % 0 mm WeatherDisplay:10.37 W/m2 FEW
15:35 28.9 °C 16.5 °C 1018.5 hPa Calm     47 % 0 mm WeatherDisplay:10.37 W/m2 FEW
15:40 29 °C 16.6 °C 1018.2 hPa Calm   3.2 km/h 47 % 0 mm WeatherDisplay:10.37 W/m2 FEW
15:45 29 °C 16.9 °C 1018.2 hPa Calm   1.6 km/h 48 % 0 mm WeatherDisplay:10.37 W/m2 FEW
15:50 29 °C 15.9 °C 1018.2 hPa Calm   3.2 km/h 45 % 0 mm WeatherDisplay:10.37 W/m2 FEW
15:55 29 °C 15.5 °C 1018.2 hPa Calm     44 % 0 mm WeatherDisplay:10.37 W/m2 FEW
16:00 28.9 °C 15.4 °C 1018.2 hPa Calm   1.6 km/h 44 % 0 mm WeatherDisplay:10.37 W/m2 FEW
16:05 28.9 °C 14.3 °C 1018.2 hPa Calm   3.2 km/h 41 % 0 mm WeatherDisplay:10.37 W/m2 FEW
16:10 28.8 °C 14.7 °C 1018.2 hPa Calm   1.6 km/h 42 % 0 mm WeatherDisplay:10.37 W/m2 FEW
16:15 28.9 °C 15.7 °C 1018.2 hPa Calm     45 % 0 mm WeatherDisplay:10.37 W/m2 FEW
16:20 28.8 °C 16.1 °C 1018.2 hPa Calm   4.8 km/h 46 % 0 mm WeatherDisplay:10.37 W/m2 FEW
16:25 28.8 °C 14.6 °C 1018.2 hPa Calm   3.2 km/h 42 % 0 mm WeatherDisplay:10.37 W/m2 FEW
16:30 28.8 °C 14.9 °C 1018.2 hPa Calm   4.8 km/h 43 % 0 mm WeatherDisplay:10.37 W/m2 FEW
16:35 28.7 °C 15.3 °C 1017.8 hPa Calm   1.6 km/h 44 % 0 mm WeatherDisplay:10.37 W/m2 FEW
16:40 28.7 °C 15.9 °C 1017.8 hPa Calm     46 % 0 mm WeatherDisplay:10.37 W/m2 FEW
16:45 28.7 °C 15.2 °C 1017.8 hPa Calm   1.6 km/h 44 % 0 mm WeatherDisplay:10.37 W/m2 FEW
16:50 28.7 °C 15.2 °C 1017.8 hPa Calm   1.6 km/h 44 % 0 mm WeatherDisplay:10.37 W/m2 FEW
16:55 28.6 °C 14.4 °C 1017.8 hPa Calm   3.2 km/h 42 % 0 mm WeatherDisplay:10.37 W/m2 FEW
17:00 28.6 °C 15.5 °C 1017.8 hPa Calm   1.6 km/h 45 % 0 mm WeatherDisplay:10.37 W/m2 FEW
17:05 28.6 °C 14.4 °C 1017.8 hPa Calm   3.2 km/h 42 % 0 mm WeatherDisplay:10.37 W/m2 FEW
17:10 28.6 °C 14.4 °C 1017.8 hPa Calm   1.6 km/h 42 % 0 mm WeatherDisplay:10.37 W/m2 FEW
17:15 28.5 °C 13.9 °C 1017.8 hPa Calm   1.6 km/h 41 % 0 mm WeatherDisplay:10.37 W/m2 FEW
17:20 28.5 °C 14.3 °C 1017.8 hPa Calm     42 % 0 mm WeatherDisplay:10.37 W/m2 FEW
17:25 28.5 °C 13.9 °C 1017.8 hPa Calm     41 % 0 mm WeatherDisplay:10.37 W/m2 FEW
17:30 28.5 °C 14.7 °C 1017.8 hPa Calm     43 % 0 mm WeatherDisplay:10.37 W/m2 FEW
17:35 28.5 °C 15.1 °C 1017.8 hPa NE 1.6 km/h 4.8 km/h 44 % 0 mm WeatherDisplay:10.37 W/m2 FEW
17:40 28.6 °C 15.8 °C 1017.8 hPa Calm   3.2 km/h 46 % 0 mm WeatherDisplay:10.37 W/m2 FEW
17:45 28.6 °C 15.8 °C 1017.8 hPa Calm     46 % 0 mm WeatherDisplay:10.37 W/m2 FEW
17:50 28.6 °C 15.8 °C 1018.2 hPa Calm     46 % 0 mm WeatherDisplay:10.37 W/m2 FEW
17:55 28.5 °C 15.1 °C 1017.8 hPa Calm     44 % 0 mm WeatherDisplay:10.37 W/m2 FEW
18:00 28.5 °C 15.8 °C 1017.8 hPa Calm     46 % 0 mm WeatherDisplay:10.37 W/m2 FEW
18:05 28.4 °C 15.7 °C 1017.8 hPa Calm     46 % 0 mm WeatherDisplay:10.37 W/m2 FEW
18:10 28.3 °C 15.9 °C 1017.8 hPa Calm     47 % 0 mm WeatherDisplay:10.37 W/m2 FEW
18:15 28.3 °C 15.9 °C 1017.8 hPa Calm     47 % 0 mm WeatherDisplay:10.37 W/m2 FEW
18:20 28.2 °C 15.8 °C 1017.8 hPa Calm     47 % 0 mm WeatherDisplay:10.37 W/m2 FEW
18:25 28.1 °C 16.1 °C 1017.8 hPa Calm     48 % 0 mm WeatherDisplay:10.37 W/m2 FEW
18:30 28.1 °C 16.7 °C 1017.8 hPa Calm   1.6 km/h 50 % 0 mm WeatherDisplay:10.37 W/m2 FEW
18:35 27.9 °C 16.2 °C 1017.8 hPa Calm   1.6 km/h 49 % 0 mm WeatherDisplay:10.37 W/m2 FEW
18:40 27.8 °C 16.1 °C 1017.8 hPa Calm     49 % 0 mm WeatherDisplay:10.37 W/m2 FEW
18:45 27.7 °C 16.1 °C 1017.8 hPa Calm     49 % 0 mm WeatherDisplay:10.37 W/m2 FEW
18:50 27.6 °C 16.2 °C 1017.8 hPa Calm     50 % 0 mm WeatherDisplay:10.37 W/m2 FEW
18:55 27.5 °C 17.1 °C 1017.8 hPa Calm   1.6 km/h 53 % 0 mm WeatherDisplay:10.37 W/m2 FEW
19:00 27.4 °C 16.9 °C 1017.8 hPa Calm     53 % 0 mm WeatherDisplay:10.37 W/m2 FEW
19:05 27.2 °C 17.1 °C 1017.5 hPa Calm     54 % 0 mm WeatherDisplay:10.37 W/m2 FEW
19:10 27.1 °C 17.3 °C 1017.8 hPa Calm     55 % 0 mm WeatherDisplay:10.37 W/m2 FEW
19:15 26.9 °C 17.4 °C 1017.8 hPa Calm   1.6 km/h 56 % 0 mm WeatherDisplay:10.37 W/m2 FEW
19:20 26.8 °C 17.3 °C 1017.8 hPa Calm     56 % 0 mm WeatherDisplay:10.37 W/m2 FEW
19:25 26.6 °C 16.8 °C 1017.8 hPa Calm     55 % 0 mm WeatherDisplay:10.37 W/m2 FEW
19:30 26.4 °C 17.5 °C 1017.8 hPa Calm     58 % 0 mm WeatherDisplay:10.37 W/m2 FEW
19:35 26.3 °C 17.6 °C 1017.8 hPa Calm     59 % 0 mm WeatherDisplay:10.37 W/m2 FEW
19:40 26.1 °C 17.7 °C 1017.8 hPa Calm     60 % 0 mm WeatherDisplay:10.37 W/m2 FEW
19:45 25.8 °C 17.8 °C 1017.8 hPa Calm     61 % 0 mm WeatherDisplay:10.37 W/m2 FEW
19:50 25.6 °C 17.5 °C 1017.8 hPa Calm     61 % 0 mm WeatherDisplay:10.37 W/m2 FEW
19:55 25.3 °C 17.5 °C 1017.8 hPa Calm     62 % 0 mm WeatherDisplay:10.37 W/m2 FEW
20:00 25.1 °C 17.3 °C 1017.8 hPa Calm     62 % 0 mm WeatherDisplay:10.37 W/m2 FEW
20:05 24.8 °C 17.1 °C 1017.8 hPa Calm     62 % 0 mm WeatherDisplay:10.37 W/m2 FEW
20:10 24.6 °C 17.3 °C 1017.8 hPa Calm     64 % 0 mm WeatherDisplay:10.37 W/m2 FEW
20:15 24.3 °C 17.3 °C 1017.8 hPa Calm     65 % 0 mm WeatherDisplay:10.37 W/m2 FEW
20:20 24 °C 17 °C 1017.8 hPa Calm     65 % 0 mm WeatherDisplay:10.37 W/m2 FEW
20:25 23.8 °C 16.8 °C 1017.8 hPa Calm     65 % 0 mm WeatherDisplay:10.37 W/m2 FEW
20:30 23.6 °C 16.8 °C 1017.8 hPa Calm     66 % 0 mm WeatherDisplay:10.37 W/m2 FEW
20:35 23.3 °C 16.8 °C 1017.8 hPa Calm     67 % 0 mm WeatherDisplay:10.37 W/m2 FEW
20:40 23 °C 17 °C 1018.2 hPa Calm     69 % 0 mm WeatherDisplay:10.37 W/m2 FEW
20:45 22.7 °C 17 °C 1018.2 hPa Calm     70 % 0 mm WeatherDisplay:10.37 W/m2 FEW
20:50 22.5 °C 16.9 °C 1018.2 hPa Calm     71 % 0 mm WeatherDisplay:10.37 W/m2 FEW
20:55 22.2 °C 16.9 °C 1018.2 hPa Calm     72 % 0 mm WeatherDisplay:10.37 W/m2 FEW
21:00 22.1 °C 16.9 °C 1018.2 hPa Calm     73 % 0 mm WeatherDisplay:10.37 W/m2 FEW
21:05 21.8 °C 17 °C 1018.2 hPa Calm     74 % 0 mm WeatherDisplay:10.37 W/m2 FEW
21:10 21.7 °C 17.1 °C 1018.2 hPa Calm     75 % 0 mm WeatherDisplay:10.37 W/m2 FEW
21:15 21.4 °C 17.1 °C 1018.5 hPa Calm     76 % 0 mm WeatherDisplay:10.37 W/m2 FEW
21:20 21.3 °C 16.9 °C 1018.5 hPa Calm     76 % 0 mm WeatherDisplay:10.37 W/m2 FEW
21:25 21.2 °C 16.9 °C 1018.5 hPa Calm     77 % 0 mm WeatherDisplay:10.37 W/m2 FEW
21:30 20.9 °C 16.8 °C 1018.5 hPa Calm     77 % 0 mm WeatherDisplay:10.37 W/m2 FEW
21:35 20.8 °C 16.8 °C 1018.5 hPa Calm     78 % 0 mm WeatherDisplay:10.37 W/m2 FEW
21:40 20.7 °C 16.9 °C 1018.5 hPa Calm     79 % 0 mm WeatherDisplay:10.37 W/m2 FEW
21:45 20.5 °C 16.7 °C 1018.5 hPa Calm     79 % 0 mm WeatherDisplay:10.37 W/m2 FEW
21:50 20.4 °C 16.6 °C 1018.5 hPa Calm     79 % 0 mm WeatherDisplay:10.37 W/m2 FEW
21:55 20.3 °C 16.7 °C 1018.5 hPa Calm     80 % 0 mm WeatherDisplay:10.37 W/m2 FEW
22:00 20.2 °C 16.6 °C 1018.5 hPa Calm     80 % 0 mm WeatherDisplay:10.37 W/m2 FEW
22:05 20 °C 16.4 °C 1018.5 hPa Calm     80 % 0 mm WeatherDisplay:10.37 W/m2 FEW
22:10 19.9 °C 16.3 °C 1018.2 hPa Calm     80 % 0 mm WeatherDisplay:10.37 W/m2 FEW
22:15 19.8 °C 16.2 °C 1018.2 hPa Calm     80 % 0 mm WeatherDisplay:10.37 W/m2 FEW
22:20 19.6 °C 16.3 °C 1018.2 hPa Calm     81 % 0 mm WeatherDisplay:10.37 W/m2 FEW
22:25 19.5 °C 16.2 °C 1018.2 hPa Calm     81 % 0 mm WeatherDisplay:10.37 W/m2 FEW
22:30 19.4 °C 16.1 °C 1018.5 hPa Calm     81 % 0 mm WeatherDisplay:10.37 W/m2 FEW
22:35 19.3 °C 15.9 °C 1018.5 hPa Calm     81 % 0 mm WeatherDisplay:10.37 W/m2 FEW
22:40 19.2 °C 15.9 °C 1018.5 hPa Calm     81 % 0 mm WeatherDisplay:10.37 W/m2 FEW
22:45 19.1 °C 15.8 °C 1018.5 hPa Calm     81 % 0 mm WeatherDisplay:10.37 W/m2 FEW
22:50 19 °C 15.7 °C 1018.2 hPa Calm     81 % 0 mm WeatherDisplay:10.37 W/m2 FEW
22:55 18.9 °C 15.8 °C 1018.5 hPa Calm     82 % 0 mm WeatherDisplay:10.37 W/m2 FEW
23:00 18.8 °C 15.7 °C 1018.5 hPa Calm     82 % 0 mm WeatherDisplay:10.37 W/m2 FEW
23:05 18.7 °C 15.8 °C 1018.5 hPa Calm     83 % 0 mm WeatherDisplay:10.37 W/m2 FEW
23:10 18.7 °C 15.7 °C 1018.5 hPa Calm     83 % 0 mm WeatherDisplay:10.37 W/m2 FEW
23:15 18.6 °C 15.6 °C 1018.5 hPa Calm     83 % 0 mm WeatherDisplay:10.37 W/m2 FEW
23:20 18.5 °C 15.6 °C 1018.5 hPa Calm     83 % 0 mm WeatherDisplay:10.37 W/m2 FEW
23:25 18.4 °C 15.6 °C 1018.5 hPa Calm     84 % 0 mm WeatherDisplay:10.37 W/m2 FEW
23:30 18.3 °C 15.6 °C 1018.5 hPa Calm     84 % 0 mm WeatherDisplay:10.37 W/m2 FEW
23:35 18.2 °C 15.5 °C 1018.5 hPa Calm     84 % 0 mm WeatherDisplay:10.37 W/m2 FEW
23:40 18.2 °C 15.4 °C 1018.5 hPa Calm     84 % 0 mm WeatherDisplay:10.37 W/m2 FEW
23:45 18.1 °C 15.6 °C 1018.5 hPa Calm     85 % 0 mm WeatherDisplay:10.37 W/m2 FEW
23:50 18 °C 15.4 °C 1018.5 hPa Calm     85 % 0 mm WeatherDisplay:10.37 W/m2 FEW
23:55 17.9 °C 15.4 °C 1018.5 hPa Calm     85 % 0 mm WeatherDisplay:10.37 W/m2 FEW
Juneau County Weather
Compliments of Weather Underground - 3 mb